SCP
0 0 0 0 0 -0 -0 0 0 -0 -0 0 0 0 0 0 -0 0 0 -0 -0 -0 -0 -0 -0 -0 -0 -0 -0 -0 -0 -0 -0 -0 0 -0 -0 -0
0 0 0 0 0 0 0 0 0 0 0 -0 0 0 0 0 0 0 0 0 -0 0 0 -0 -0 -0 -0 -0 -0 -0 -0 -0 -0 -0 -0 0 0 0
0 0 0 0 0 0 0 0 0 0 0 0 0 0 0 0 -0 -0 -0 -0 -0 -0 -0 0 -0 -0 -0 -0 -0 -0 -0 -0 -0 -0 -0 -0 0 0
0 0 0 0 0 0 0 0 0 0 0 0 0 0 0 0 0 0 -0 -0 -0 -0 -0 0 0 0 0 0 0 -0 -0 0 0 0 0 0 0 0
0 0 0 0 0 0 0 0 0 0 0 0 0 0 0 0 0 0 0 0 0 0 0 0 0 0 0 0 0 0 0 0 0 0 0 0 0 0
0 0 0 0 0 0 0 0 0 0 0 0 0 0 0 0 0 0 0 0 0 0 0 0 0 0 0 0 0 0 0 0 0 0 0 0 0 0
0 0 0 0 0 0 0 0 0 0 0 0 0 0 0 0 0 0 0 0 0 0 0 0 0 0 0 0 0 0 0 0 0 0 0 0 0 0
0 0 0 0 0 0 0 0 0 0 0 0 0 0 0 0 0 0 0 0 0 0 0 0 0 0 0 0 0 0 0 0 0 0 0 0 0 0
0 0 0 0 0 0 0 0 0 0 0 0 0 0 0 0 0 0 0 0 0 0 0 0 0 0 0 0 0 0 0 0 0 0 0 0 0 0
0 0 0 0 0 0 0 0 0 0 0 0 0 0 0 0 0 0 0 0 0 0 0 0 0 0 0 0 0 0 0 0 0 0 0 0 0 0
0 0 0 0 0 0 0 0 0 0 0 0 0 0 0 0 0 0 0 0 0 0 0 0 0 0 0 0 0 0 0 0 0 0 0 0 0 0
0 0 0 0 0 0 0 0 0 0 0 0 0 0 0 0 0 0 0 0 0 0 0 0 0 0 0 0 0 0 0 0 0 0 0 0 0 0
0 0 0 0 0 0 0 0 0 0 0 0 0 0 0 0 0 0 0 0 0 0 0 0 0 0 0 0 0 0 0 0 0 0 0 0 0 0
0 0 0 0 0 0 0 0 0 0 0 0 0 0 0 0 0 0 0 0 0 0 0 0 0 0 0 0 0 0 0 0 0 0 0 0 0 0
0 0 0 0 0 0 0 0 0 0 0 0 0 0 0 0 0 0 0 0 0 0 0 0 0 0 0 0 0 0 0 0 0 0 0 0 0 0
0 0 0 0 0 0 0 0 0 0 0 0 0 0 0 0 0 0 0 0 0 0 0 0 0 0 0 0 0 0 0 0 0 0 0 0 0 0
0 0 0 0 0 0 0 0 0 0 0 0 0 0 0 0 0 0 0 0 0 0 0 0 0 0 0 0 0 0 0 0 0 0 0 0 0 0
-0 0 0 0 0 0 0 0 0 0 0 0 0 0 0 0 0 0 0 0 0 0 0 0 0 0 0 0 0 0 0 0 0 0 0 0 0 0
0 0 0 0 0 0 0 0 0 0 0 0 0 0 0 0 0 0 0 0 0 0 0 0 0 0 0 0 0 0 0 0 0 0 0 0 0 0
0 0 0 0 0 0 0 0 0 0 0 0 0 0 0 0 0 0 0 0 0 0 0 0 0 0 0 0 0 0 0 0 0 0 0 0 0 0
0 0 0 0 0 0 0 0 0 0 0 0 0 0 0 0 0 0 0 0 0 0 0 0 0 0 0 0 0 0 0 0 0 0 0 0 0 0
0 0 0 0 0 0 0 0 0 0 0 0 0 0 0 0 0 0 0 0 0 0 0 0 0 0 0 0 0 0 0 0 0 0 0 0 0 0
0 0 0 0 0 0 0 0 0 0 0 0 0 0 0 0 0 0 0 0 0 0 0 0 0 0 0 0 0 0 0 0 0 0 0 0 0 0
Wind_Speed_500mb
39 33 26 13 19 20 17 8 14 21 36 36 34 38 35 36 32 32 32 29 32 33 33 33 36 39 42 42 44 46 45 45 43 44 44 46 47 48
31 36 32 24 22 21 18 16 14 14 13 22 23 27 28 34 34 35 31 33 31 31 35 31 30 30 34 37 39 42 43 44 44 43 41 41 41 41
35 34 36 37 35 32 26 21 20 17 15 11 11 11 25 21 32 35 35 36 35 35 32 29 29 27 29 32 34 36 38 37 37 37 39 40 42 43
37 36 32 31 31 33 35 30 24 18 14 14 14 14 14 25 25 39 28 28 30 32 31 32 34 33 32 36 38 38 41 45 45 45 47 50 51 44
32 33 32 29 28 27 31 35 33 29 24 24 21 19 17 19 21 34 36 27 24 31 31 36 31 33 41 45 44 46 49 48 43 43 42 43 36 44
33 31 34 35 33 33 32 32 34 33 30 35 29 26 27 27 27 29 30 32 35 34 34 37 37 33 30 27 29 32 36 38 39 37 37 37 38 36
24 24 27 29 29 30 28 28 30 32 32 31 32 34 35 35 35 33 36 39 37 33 31 29 28 28 31 32 33 37 38 37 37 37 37 36 37 38
16 16 14 10 14 17 17 18 20 21 23 24 24 24 25 26 26 26 25 22 20 24 25 26 26 31 38 43 48 49 49 46 47 50 54 53 50 41
20 21 21 19 19 20 21 22 25 27 27 26 26 25 24 22 24 26 27 26 28 32 35 37 37 29 25 19 16 18 18 17 17 20 22 23 27 32
19 16 16 18 22 23 23 24 24 26 26 26 26 25 24 24 26 27 27 28 29 33 31 30 28 22 23 24 24 24 25 25 23 23 26 30 35 34
24 21 20 19 18 18 21 25 27 31 33 30 28 28 25 24 21 20 20 19 17 17 16 16 19 20 22 27 26 30 32 31 30 31 33 35 35 33
27 21 20 15 14 11 13 16 18 22 23 22 23 24 23 21 19 16 14 12 11 13 16 15 20 22 16 19 17 22 24 25 26 28 30 32 30 33
27 21 19 18 15 12 12 14 17 18 19 21 24 23 21 18 16 15 12 12 13 15 20 18 9 4 6 12 12 10 1 6 9 12 15 18 22 27
25 20 20 17 15 16 13 13 15 15 16 17 18 19 19 16 15 15 15 19 19 12 12 6 2 8 0 10 11 6 16 20 19 20 22 22 20 18
24 19 19 17 16 14 11 10 9 7 8 10 14 15 16 16 18 17 15 10 9 15 15 9 2 4 2 6 10 22 20 14 12 16 19 24 28 29
13 13 19 17 13 12 12 12 12 11 10 12 16 16 14 13 11 9 10 12 15 23 14 9 7 5 3 5 8 7 7 5 5 5 11 16 16 18
6 9 18 15 15 16 15 16 11 7 8 10 11 12 13 12 10 11 10 18 20 18 16 14 10 4 5 7 12 6 6 5 4 4 7 10 18 13
9 13 19 23 24 24 21 20 13 11 10 14 16 15 15 13 12 15 12 13 12 19 20 16 12 3 4 16 11 15 12 6 1 8 9 5 8 4
17 18 21 26 28 30 31 24 20 18 18 17 16 20 20 18 19 18 17 13 12 17 14 17 9 3 8 26 14 9 5 6 11 7 8 10 4 4
20 20 22 24 26 29 26 20 22 27 28 21 17 22 23 21 19 21 20 18 15 19 18 16 9 7 7 12 14 10 6 6 11 8 4 4 5 12
24 25 26 28 31 31 29 23 24 26 27 24 19 18 25 26 23 23 24 22 21 21 20 16 13 9 8 9 15 11 2 5 4 9 14 19 23 25
25 25 27 30 35 34 34 30 27 27 28 28 27 28 28 31 28 25 28 27 25 24 23 20 16 13 14 15 13 11 8 4 5 14 21 23 26 30
21 22 24 31 34 35 35 36 34 31 31 30 32 29 27 29 25 27 28 30 29 29 28 25 19 15 19 18 15 11 11 14 20 25 25 30 33 32
Wind_Direction_500mb
223 227 228 227 225 244 249 246 216 213 216 224 227 227 227 224 228 224 225 231 232 233 236 242 249 256 258 260 265 268 270 271 274 276 279 282 283 284
224 228 230 228 235 236 245 240 247 232 220 238 227 225 229 234 228 234 238 242 242 243 244 247 250 269 264 267 271 270 270 271 272 275 278 281 283 283
230 236 235 241 242 240 238 238 237 241 249 230 213 242 227 242 227 236 240 245 251 252 261 260 274 273 274 268 271 273 273 270 268 268 271 273 277 278
230 233 236 234 235 235 232 233 237 244 247 241 241 262 249 230 224 234 243 258 258 252 249 260 266 259 265 269 266 269 274 270 266 268 269 275 270 272
230 231 231 228 229 236 237 237 239 242 245 247 250 251 242 237 254 236 234 243 245 244 249 260 263 268 273 276 274 270 271 272 275 272 269 272 278 271
213 217 223 230 234 236 241 241 246 250 245 252 252 258 258 254 251 247 246 245 250 252 260 268 272 273 272 277 278 284 286 283 277 267 272 275 268 272
212 219 226 228 231 236 241 240 243 247 248 250 250 253 254 254 255 252 252 258 261 260 259 257 258 262 264 273 280 284 282 280 279 274 272 277 278 278
219 231 233 217 211 228 228 232 232 236 238 240 242 242 241 239 242 242 240 235 238 244 243 245 254 269 277 282 287 290 289 288 281 275 272 271 274 275
237 235 242 250 256 259 253 246 241 243 245 245 244 242 240 239 242 246 250 255 257 261 263 267 275 283 281 278 259 251 256 260 271 278 280 282 276 267
235 230 235 253 265 264 256 250 250 250 250 252 255 255 253 246 249 256 263 267 267 268 271 274 269 258 245 257 254 260 270 278 283 283 282 285 290 283
224 230 250 261 267 271 268 259 252 248 248 248 247 245 240 240 251 262 266 270 267 268 271 270 266 263 250 259 266 268 276 282 288 290 286 283 279 275
235 242 249 241 256 257 270 260 249 237 233 230 232 233 235 242 250 259 263 262 248 255 249 255 266 279 280 252 256 276 289 295 293 289 284 283 282 274
243 245 235 243 249 270 268 250 241 238 235 232 229 231 231 237 233 238 249 248 255 265 261 274 272 281 277 258 268 281 320 359 344 328 312 303 295 287
235 247 242 238 262 283 275 258 246 237 234 231 225 219 223 231 242 251 256 266 277 252 213 173 217 312 250 112 112 126 123 95 78 68 57 45 34 20
235 235 243 258 274 273 255 232 232 232 209 208 217 221 223 236 247 251 256 256 170 156 167 188 234 208 79 94 115 129 124 112 87 74 63 53 48 45
244 248 252 259 261 250 232 221 227 235 229 216 220 232 238 226 223 224 234 194 173 175 190 224 226 204 232 201 173 143 115 118 124 63 61 56 46 42
186 229 243 247 262 242 226 219 215 214 221 231 230 229 227 223 229 236 221 196 197 205 210 193 195 230 332 191 169 178 160 86 63 30 17 45 37 47
241 268 275 273 262 242 231 230 236 243 252 256 249 244 233 238 242 207 200 182 190 189 196 202 197 262 203 160 141 124 119 134 77 347 344 336 39 68
252 257 259 256 253 245 244 245 246 241 247 260 263 236 239 241 223 220 216 208 209 209 197 191 213 247 201 180 138 134 96 11 344 307 308 321 14 317
278 280 278 264 241 237 242 250 245 238 236 254 257 243 241 234 229 226 232 224 227 207 200 201 225 270 230 190 174 129 136 37 60 87 85 36 350 313
269 275 280 267 243 237 238 243 256 259 246 251 254 252 242 238 239 236 229 227 228 224 217 223 239 241 217 183 168 151 92 48 36 344 334 334 334 335
260 267 269 257 240 238 238 241 253 252 246 252 261 268 257 238 242 242 236 235 234 232 224 225 224 239 226 205 189 187 181 164 287 311 321 326 333 328
247 258 269 256 241 241 239 241 246 257 259 262 258 257 237 229 242 254 240 234 235 233 222 219 224 239 227 222 215 225 264 286 293 299 301 312 312 309
Wind_Speed_850mb
39 33 26 13 19 20 17 8 14 21 36 36 34 38 35 36 32 32 32 29 32 33 33 33 36 39 42 42 44 46 45 45 43 44 44 46 47 48
31 36 32 24 22 21 18 16 14 14 13 22 23 27 28 34 34 35 31 33 31 31 35 31 30 30 34 37 39 42 43 44 44 43 41 41 41 41
35 34 36 37 35 32 26 21 20 17 15 11 11 11 25 21 32 35 35 36 35 35 32 29 29 27 29 32 34 36 38 37 37 37 39 40 42 43
37 36 32 31 31 33 35 30 24 18 14 14 14 14 14 25 25 39 28 28 30 32 31 32 34 33 32 36 38 38 41 45 45 45 47 50 51 44
32 33 32 29 28 27 31 35 33 29 24 24 21 19 17 19 21 34 36 27 24 31 31 36 31 33 41 45 44 46 49 48 43 43 42 43 36 44
33 31 34 35 33 33 32 32 34 33 30 35 29 26 27 27 27 29 30 32 35 34 34 37 37 33 30 27 29 32 36 38 39 37 37 37 38 36
24 24 27 29 29 30 28 28 30 32 32 31 32 34 35 35 35 33 36 39 37 33 31 29 28 28 31 32 33 37 38 37 37 37 37 36 37 38
16 16 14 10 14 17 17 18 20 21 23 24 24 24 25 26 26 26 25 22 20 24 25 26 26 31 38 43 48 49 49 46 47 50 54 53 50 41
20 21 21 19 19 20 21 22 25 27 27 26 26 25 24 22 24 26 27 26 28 32 35 37 37 29 25 19 16 18 18 17 17 20 22 23 27 32
19 16 16 18 22 23 23 24 24 26 26 26 26 25 24 24 26 27 27 28 29 33 31 30 28 22 23 24 24 24 25 25 23 23 26 30 35 34
24 21 20 19 18 18 21 25 27 31 33 30 28 28 25 24 21 20 20 19 17 17 16 16 19 20 22 27 26 30 32 31 30 31 33 35 35 33
27 21 20 15 14 11 13 16 18 22 23 22 23 24 23 21 19 16 14 12 11 13 16 15 20 22 16 19 17 22 24 25 26 28 30 32 30 33
27 21 19 18 15 12 12 14 17 18 19 21 24 23 21 18 16 15 12 12 13 15 20 18 9 4 6 12 12 10 1 6 9 12 15 18 22 27
25 20 20 17 15 16 13 13 15 15 16 17 18 19 19 16 15 15 15 19 19 12 12 6 2 8 0 10 11 6 16 20 19 20 22 22 20 18
24 19 19 17 16 14 11 10 9 7 8 10 14 15 16 16 18 17 15 10 9 15 15 9 2 4 2 6 10 22 20 14 12 16 19 24 28 29
13 13 19 17 13 12 12 12 12 11 10 12 16 16 14 13 11 9 10 12 15 23 14 9 7 5 3 5 8 7 7 5 5 5 11 16 16 18
6 9 18 15 15 16 15 16 11 7 8 10 11 12 13 12 10 11 10 18 20 18 16 14 10 4 5 7 12 6 6 5 4 4 7 10 18 13
9 13 19 23 24 24 21 20 13 11 10 14 16 15 15 13 12 15 12 13 12 19 20 16 12 3 4 16 11 15 12 6 1 8 9 5 8 4
17 18 21 26 28 30 31 24 20 18 18 17 16 20 20 18 19 18 17 13 12 17 14 17 9 3 8 26 14 9 5 6 11 7 8 10 4 4
20 20 22 24 26 29 26 20 22 27 28 21 17 22 23 21 19 21 20 18 15 19 18 16 9 7 7 12 14 10 6 6 11 8 4 4 5 12
24 25 26 28 31 31 29 23 24 26 27 24 19 18 25 26 23 23 24 22 21 21 20 16 13 9 8 9 15 11 2 5 4 9 14 19 23 25
25 25 27 30 35 34 34 30 27 27 28 28 27 28 28 31 28 25 28 27 25 24 23 20 16 13 14 15 13 11 8 4 5 14 21 23 26 30
21 22 24 31 34 35 35 36 34 31 31 30 32 29 27 29 25 27 28 30 29 29 28 25 19 15 19 18 15 11 11 14 20 25 25 30 33 32
Wind_Direction_850mb
223 227 228 227 225 244 249 246 216 213 216 224 227 227 227 224 228 224 225 231 232 233 236 242 249 256 258 260 265 268 270 271 274 276 279 282 283 284
224 228 230 228 235 236 245 240 247 232 220 238 227 225 229 234 228 234 238 242 242 243 244 247 250 269 264 267 271 270 270 271 272 275 278 281 283 283
230 236 235 241 242 240 238 238 237 241 249 230 213 242 227 242 227 236 240 245 251 252 261 260 274 273 274 268 271 273 273 270 268 268 271 273 277 278
230 233 236 234 235 235 232 233 237 244 247 241 241 262 249 230 224 234 243 258 258 252 249 260 266 259 265 269 266 269 274 270 266 268 269 275 270 272
230 231 231 228 229 236 237 237 239 242 245 247 250 251 242 237 254 236 234 243 245 244 249 260 263 268 273 276 274 270 271 272 275 272 269 272 278 271
213 217 223 230 234 236 241 241 246 250 245 252 252 258 258 254 251 247 246 245 250 252 260 268 272 273 272 277 278 284 286 283 277 267 272 275 268 272
212 219 226 228 231 236 241 240 243 247 248 250 250 253 254 254 255 252 252 258 261 260 259 257 258 262 264 273 280 284 282 280 279 274 272 277 278 278
219 231 233 217 211 228 228 232 232 236 238 240 242 242 241 239 242 242 240 235 238 244 243 245 254 269 277 282 287 290 289 288 281 275 272 271 274 275
237 235 242 250 256 259 253 246 241 243 245 245 244 242 240 239 242 246 250 255 257 261 263 267 275 283 281 278 259 251 256 260 271 278 280 282 276 267
235 230 235 253 265 264 256 250 250 250 250 252 255 255 253 246 249 256 263 267 267 268 271 274 269 258 245 257 254 260 270 278 283 283 282 285 290 283
224 230 250 261 267 271 268 259 252 248 248 248 247 245 240 240 251 262 266 270 267 268 271 270 266 263 250 259 266 268 276 282 288 290 286 283 279 275
235 242 249 241 256 257 270 260 249 237 233 230 232 233 235 242 250 259 263 262 248 255 249 255 266 279 280 252 256 276 289 295 293 289 284 283 282 274
243 245 235 243 249 270 268 250 241 238 235 232 229 231 231 237 233 238 249 248 255 265 261 274 272 281 277 258 268 281 320 359 344 328 312 303 295 287
235 247 242 238 262 283 275 258 246 237 234 231 225 219 223 231 242 251 256 266 277 252 213 173 217 312 250 112 112 126 123 95 78 68 57 45 34 20
235 235 243 258 274 273 255 232 232 232 209 208 217 221 223 236 247 251 256 256 170 156 167 188 234 208 79 94 115 129 124 112 87 74 63 53 48 45
244 248 252 259 261 250 232 221 227 235 229 216 220 232 238 226 223 224 234 194 173 175 190 224 226 204 232 201 173 143 115 118 124 63 61 56 46 42
186 229 243 247 262 242 226 219 215 214 221 231 230 229 227 223 229 236 221 196 197 205 210 193 195 230 332 191 169 178 160 86 63 30 17 45 37 47
241 268 275 273 262 242 231 230 236 243 252 256 249 244 233 238 242 207 200 182 190 189 196 202 197 262 203 160 141 124 119 134 77 347 344 336 39 68
252 257 259 256 253 245 244 245 246 241 247 260 263 236 239 241 223 220 216 208 209 209 197 191 213 247 201 180 138 134 96 11 344 307 308 321 14 317
278 280 278 264 241 237 242 250 245 238 236 254 257 243 241 234 229 226 232 224 227 207 200 201 225 270 230 190 174 129 136 37 60 87 85 36 350 313
269 275 280 267 243 237 238 243 256 259 246 251 254 252 242 238 239 236 229 227 228 224 217 223 239 241 217 183 168 151 92 48 36 344 334 334 334 335
260 267 269 257 240 238 238 241 253 252 246 252 261 268 257 238 242 242 236 235 234 232 224 225 224 239 226 205 189 187 181 164 287 311 321 326 333 328
247 258 269 256 241 241 239 241 246 257 259 262 258 257 237 229 242 254 240 234 235 233 222 219 224 239 227 222 215 225 264 286 293 299 301 312 312 309